User: anonymous   Login
Location: Theodore Roosevelt Nature Center
(40.5943°N, 73.5104°W)
Time: 16:19:03
(UTC-05:00)
Language:

NOAA 19 - Orbit

View from above orbital plane
View from above orbital plane
View from above satellite
View from above satellite

Ground track
Ground track

The orbit data is extracted from the following two-line orbital elements,

1 33591U 09005A   19346.58109454  .00000026  00000-0  39502-4 0  9995
2 33591  99.1910 342.0859 0013127 241.0915 118.8939 14.12387131558872
Epoch (UTC): 12 December 2019 13:56:46
Eccentricity: 0.0013127
inclination: 99.1910°
perigee height: 842 km
apogee height: 861 km
right ascension of ascending node: 342.0859°
argument of perigee: 241.0915°
revolutions per day: 14.12387131
mean anomaly at epoch: 118.8939°
orbit number at epoch: 55887

The dashed part of the orbit path shows where the satellite is in the earth's shadow,  

DLR